Weather History for KONL - October, 2013

Change the Weather History Date:

Sunday, October 20, 2013

  Actual Average Record
Temperature  
Mean Temperature 44 °F -  
Max Temperature 58 °F 63 °F 87 °F (1978)
Min Temperature 32 °F 35 °F 12 °F (1987)
Degree Days  
Heating Degree Days 20    
Moisture  
Dew Point 35 °F    
Average Humidity 61    
Maximum Humidity 90    
Minimum Humidity 41    
Precipitation  
Precipitation 0.00 in - - ()
Sea Level Pressure  
Sea Level Pressure 29.85 in    
Wind  
Wind Speed 10 mph (WNW)    
Max Wind Speed 26 mph    
Max Gust Speed 36 mph    
Visibility 10 miles    
Events Rain    
Averages and records for this station are not official NWS values.
T = Trace of Precipitation, MM = Missing Value Source: NWS Daily Summary

Daily Weather History Graph

Daily Weather History Graph

Search for Another Location

Airport or City:

Trip Planner

Search our weather history database for the weather conditions in past years. The results will help you decide how hot, cold, wet, or windy it might be!

Date:

Astronomy

Oct. 20, 2013 Rise Set
Actual Time 7:53 AM CDT 6:44 PM CDT
Civil Twilight 7:25 AM CDT 7:12 PM CDT
Nautical Twilight 6:52 AM CDT 7:45 PM CDT
Astronomical Twilight 6:20 AM CDT 8:18 PM CDT
Moon 7:51 PM CDT (10/20) 9:35 AM CDT (10/20)
Length of Visible Light 11h 47m
Length of Day
10h 50m
Full, 97% of the Moon is Illuminated
Oct 20
Full
Oct 26
Last Quarter
Nov 3
New
Nov 9
First Quarter
Nov 17
Full

Hourly Weather History & Observations

Time (CDT) Temp. Windchill Dew Point Humidity Pressure Visibility Wind Dir Wind Speed Gust Speed Precip Events Conditions
12:15 AM 47.3 °F - 36.5 °F 66% 29.76 in 10.0 mi SSW 5.8 mph - N/A   Overcast
12:35 AM 48.0 °F - 36.5 °F 64% 29.75 in 10.0 mi South 4.6 mph - N/A   Overcast
12:55 AM 49.1 °F - 35.2 °F 59% 29.74 in 10.0 mi SSW 3.5 mph - N/A   Overcast
1:15 AM 47.5 °F - 36.5 °F 66% 29.74 in 10.0 mi South 4.6 mph - N/A   Overcast
1:35 AM 47.1 °F - 35.8 °F 65% 29.73 in 10.0 mi SSW 6.9 mph - N/A   Scattered Clouds
1:55 AM 46.4 °F 42.9 °F 35.6 °F 66% 29.73 in 10.0 mi SW 6.9 mph - N/A   Scattered Clouds
2:15 AM 45.7 °F 42.7 °F 35.6 °F 68% 29.73 in 10.0 mi WSW 5.8 mph - N/A   Scattered Clouds
2:35 AM 47.1 °F - 35.6 °F 64% 29.72 in 10.0 mi WSW 5.8 mph - N/A   Scattered Clouds
2:55 AM 46.4 °F 42.9 °F 34.7 °F 64% 29.72 in 10.0 mi WSW 6.9 mph - N/A   Scattered Clouds
3:15 AM 46.9 °F - 35.1 °F 63% 29.71 in 10.0 mi WSW 6.9 mph - N/A   Mostly Cloudy
3:35 AM 45.5 °F 42.5 °F 35.2 °F 67% 29.72 in 10.0 mi WSW 5.8 mph - N/A   Mostly Cloudy
3:55 AM 47.5 °F - 34.9 °F 62% 29.72 in 10.0 mi WSW 10.4 mph - N/A   Overcast
4:15 AM 48.2 °F - 34.9 °F 60% 29.72 in 10.0 mi WSW 9.2 mph - N/A   Overcast
4:35 AM 48.4 °F - 35.2 °F 60% 29.72 in 10.0 mi West 8.1 mph - N/A   Overcast
4:55 AM 48.4 °F - 35.4 °F 61% 29.72 in 10.0 mi West 8.1 mph - N/A   Mostly Cloudy
5:15 AM 48.9 °F - 35.8 °F 61% 29.73 in 10.0 mi West 9.2 mph - N/A   Overcast
5:35 AM 50.9 °F - 35.6 °F 56% 29.73 in 10.0 mi West 12.7 mph - N/A   Overcast
5:55 AM 54.3 °F - 34.7 °F 48% 29.74 in 10.0 mi West 13.8 mph 17.3 mph N/A   Overcast
6:15 AM 55.6 °F - 33.8 °F 44% 29.74 in 10.0 mi West 13.8 mph 20.7 mph N/A   Overcast
6:35 AM 55.6 °F - 34.0 °F 44% 29.74 in 10.0 mi WNW 13.8 mph 19.6 mph N/A   Overcast
6:55 AM 55.6 °F - 33.8 °F 44% 29.75 in 10.0 mi WNW 13.8 mph 19.6 mph N/A   Overcast
7:15 AM 55.4 °F - 33.4 °F 43% 29.75 in 10.0 mi WNW 12.7 mph 21.9 mph N/A   Overcast
7:35 AM 54.7 °F - 34.0 °F 46% 29.76 in 10.0 mi WNW 12.7 mph - N/A   Overcast
7:55 AM 53.8 °F - 34.7 °F 48% 29.76 in 10.0 mi WNW 8.1 mph - N/A   Overcast
8:15 AM 53.1 °F - 34.9 °F 50% 29.76 in 10.0 mi West 6.9 mph - N/A   Overcast
8:35 AM 52.0 °F - 35.6 °F 54% 29.77 in 10.0 mi West 4.6 mph - N/A   Mostly Cloudy
8:55 AM 51.8 °F - 36.5 °F 56% 29.78 in 10.0 mi West 6.9 mph - N/A   Clear
9:15 AM 52.0 °F - 36.9 °F 56% 29.78 in 10.0 mi West 6.9 mph - N/A   Clear
9:35 AM 52.9 °F - 36.7 °F 54% 29.79 in 10.0 mi WNW 9.2 mph - N/A   Scattered Clouds
9:55 AM 53.8 °F - 36.7 °F 52% 29.80 in 10.0 mi West 10.4 mph - N/A   Clear
10:15 AM 55.4 °F - 35.6 °F 47% 29.81 in 10.0 mi WNW 16.1 mph 24.2 mph N/A   Clear
10:35 AM 56.3 °F - 35.6 °F 46% 29.81 in 10.0 mi NW 17.3 mph 20.7 mph N/A   Clear
10:55 AM 57.6 °F - 35.2 °F 43% 29.81 in 10.0 mi NW 17.3 mph 23.0 mph N/A   Clear
11:15 AM 57.6 °F - 35.1 °F 43% 29.81 in 10.0 mi NW 24.2 mph 31.1 mph N/A   Clear
11:35 AM 57.6 °F - 33.6 °F 41% 29.82 in 10.0 mi WNW 23.0 mph 32.2 mph N/A   Scattered Clouds
11:55 AM 57.0 °F - 34.3 °F 42% 29.83 in 10.0 mi WNW 20.7 mph 32.2 mph N/A   Scattered Clouds
12:15 PM 57.7 °F - 34.0 °F 41% 29.83 in 10.0 mi NW 23.0 mph 28.8 mph N/A   Mostly Cloudy
12:35 PM 57.7 °F - 34.3 °F 41% 29.83 in 10.0 mi WNW 21.9 mph 29.9 mph N/A   Mostly Cloudy
12:55 PM 56.8 °F - 33.3 °F 41% 29.84 in 10.0 mi NW 26.5 mph 33.4 mph N/A   Mostly Cloudy
1:15 PM 54.9 °F - 33.3 °F 44% 29.84 in 10.0 mi NW 20.7 mph 28.8 mph N/A   Overcast
1:35 PM 55.2 °F - 34.3 °F 45% 29.84 in 10.0 mi NW 25.3 mph 29.9 mph N/A   Overcast
1:55 PM 54.9 °F - 33.4 °F 44% 29.85 in 10.0 mi NW 25.3 mph 33.4 mph N/A   Overcast
2:15 PM 55.2 °F - 34.3 °F 45% 29.85 in 10.0 mi NW 20.7 mph 31.1 mph N/A   Overcast
2:35 PM 55.0 °F - 34.7 °F 46% 29.85 in 10.0 mi NW 21.9 mph 29.9 mph N/A   Overcast
2:55 PM 53.6 °F - 35.1 °F 50% 29.85 in 10.0 mi NW 20.7 mph 31.1 mph N/A   Overcast
3:15 PM 52.7 °F - 35.1 °F 51% 29.87 in 10.0 mi NW 21.9 mph 31.1 mph N/A   Overcast
3:35 PM 51.8 °F - 35.4 °F 54% 29.88 in 10.0 mi NNW 20.7 mph 26.5 mph N/A   Overcast
3:55 PM 52.0 °F - 35.4 °F 53% 29.88 in 10.0 mi NW 20.7 mph 25.3 mph N/A   Overcast
4:15 PM 50.9 °F - 37.0 °F 59% 29.90 in 10.0 mi NNW 23.0 mph 35.7 mph N/A   Mostly Cloudy
4:35 PM 48.2 °F - 38.8 °F 70% 29.91 in 10.0 mi NW 17.3 mph 27.6 mph N/A   Overcast
4:55 PM 48.2 °F - 37.9 °F 68% 29.92 in 10.0 mi NW 19.6 mph 25.3 mph N/A   Overcast
5:15 PM 45.0 °F 38.5 °F 39.0 °F 80% 29.93 in 10.0 mi NW 13.8 mph 17.3 mph N/A Rain Light Rain
5:35 PM 46.6 °F - 39.7 °F 77% 29.93 in 10.0 mi NW 12.7 mph - N/A   Overcast
5:55 PM 46.8 °F - 38.5 °F 73% 29.94 in 10.0 mi NNW 13.8 mph - N/A   Overcast
6:15 PM 44.8 °F 38.7 °F 36.1 °F 72% 29.95 in 10.0 mi NW 12.7 mph - N/A   Scattered Clouds
6:35 PM 43.7 °F 38.1 °F 35.1 °F 72% 29.95 in 10.0 mi NW 10.4 mph - N/A   Clear
6:55 PM 43.3 °F 37.7 °F 33.4 °F 68% 29.96 in 10.0 mi NW 10.4 mph - N/A   Scattered Clouds
7:15 PM 42.1 °F 36.6 °F 33.8 °F 72% 29.98 in 10.0 mi NNW 9.2 mph - N/A   Scattered Clouds
7:35 PM 41.2 °F 35.5 °F 32.9 °F 72% 29.99 in 10.0 mi NNW 9.2 mph - N/A   Scattered Clouds
7:55 PM 40.1 °F 34.1 °F 32.4 °F 74% 30.00 in 10.0 mi NNW 9.2 mph - N/A   Clear
8:15 PM 37.9 °F 32.7 °F 32.0 °F 79% 30.00 in 10.0 mi NNW 6.9 mph - N/A   Clear
8:35 PM 38.5 °F 31.6 °F 32.2 °F 78% 30.01 in 10.0 mi NNW 10.4 mph - N/A   Clear
8:55 PM 38.5 °F 32.7 °F 32.0 °F 78% 30.02 in 10.0 mi NNW 8.1 mph - N/A   Scattered Clouds
9:15 PM 36.5 °F 31.8 °F 31.8 °F 83% 30.03 in 10.0 mi NW 5.8 mph - N/A   Scattered Clouds
9:35 PM 35.8 °F 30.9 °F 31.5 °F 84% 30.03 in 10.0 mi NW 5.8 mph - N/A   Clear
9:55 PM 35.1 °F 31.0 °F 31.1 °F 85% 30.04 in 10.0 mi NW 4.6 mph - N/A   Clear
10:15 PM 34.3 °F 31.4 °F 30.9 °F 87% 30.04 in 10.0 mi WNW 3.5 mph - N/A   Scattered Clouds
10:35 PM 33.8 °F 30.8 °F 30.6 °F 88% 30.04 in 10.0 mi WNW 3.5 mph - N/A   Clear
10:55 PM 33.1 °F 30.0 °F 30.6 °F 90% 30.04 in 10.0 mi WNW 3.5 mph - N/A   Clear
11:15 PM 32.5 °F 27.1 °F 29.3 °F 88% 30.05 in 10.0 mi WNW 5.8 mph - N/A   Clear
11:35 PM 32.2 °F 27.7 °F 29.3 °F 89% 30.05 in 10.0 mi WNW 4.6 mph - N/A   Clear
11:55 PM 32.0 °F 27.5 °F 28.9 °F 88% 30.05 in 10.0 mi West 4.6 mph - N/A   Mostly Cloudy